EW9696 Timbaki GR current weather conditions

sailwx.info

Wind from 124 at 3 knots gusting 7

Air temperature 13.3° C
Dewpoint 12.9° C

Last reported at 2019-Dec-14 12:07 UTC.
Time now 2019-Dec-14 12:34 UTC

Location: N 35°04' E 024°46'.
View on Google Maps.

See reports from other nearby stations

  
Tides and Currents Weather Stations Pressure Air Temp Water Temp Dewpoint Dewpoint Depression Visibility Wind Speed Wind Dir Waves Ship Positions
date/time (UTC)wind fromknots sea level pressurealtimeterstation pressurevisibilityair tempwater tempwave heightnotes
2019-Dec-14 12:07 124 3 gusting 7 13.3
2019-Dec-14 12:02 151 3 gusting 7 12.8
2019-Dec-14 11:57 141 2 gusting 7 12.8
2019-Dec-14 11:52 171 2 gusting 11 12.8
2019-Dec-14 11:47 220 3 gusting 11 12.8
2019-Dec-14 11:42 170 4 gusting 11 12.8
2019-Dec-14 11:37 226 5 gusting 16 12.8
2019-Dec-14 11:32 236 7 gusting 19 12.8
2019-Dec-14 11:27 221 10 gusting 19 12.8
2019-Dec-14 11:22 227 9 gusting 19 12.8
2019-Dec-14 11:17 227 8 gusting 20 13.3
2019-Dec-14 11:12 236 8 gusting 20 13.3
2019-Dec-14 11:07 212 11 gusting 20 13.3
2019-Dec-14 11:02 221 12 gusting 18 12.8
2019-Dec-14 10:57 224 10 gusting 16 13.3
2019-Dec-14 10:52 233 10 gusting 17 13.3
2019-Dec-14 10:47 214 10 gusting 21 13.9
2019-Dec-14 10:42 234 12 gusting 21 13.9
2019-Dec-14 10:37 240 11 gusting 18 13.3
2019-Dec-14 10:32 242 9 gusting 18 13.3
2019-Dec-14 10:27 233 10 gusting 18 13.3
2019-Dec-14 10:22 256 9 gusting 21 12.8
2019-Dec-14 10:17 269 8 gusting 21 12.2
2019-Dec-14 10:12 212 10 gusting 37 11.7
2019-Dec-14 10:07 256 16 gusting 37 11.7
2019-Dec-14 10:02 258 18 gusting 37 13.3
2019-Dec-14 09:57 167 14 gusting 23 15.6
2019-Dec-14 09:52 141 13 gusting 23 15.6
2019-Dec-14 09:47 213 13 gusting 25 15.6
2019-Dec-14 09:42 211 13 gusting 25 15.6
2019-Dec-14 09:37 147 13 gusting 24 15.6
2019-Dec-14 09:32 151 13 gusting 24 15.6
2019-Dec-14 09:27 151 13 gusting 22 15.0
2019-Dec-14 09:22 159 12 gusting 24 15.0
2019-Dec-14 09:02 148 13 gusting 27 15.0
2019-Dec-14 08:52 169 15 gusting 27 15.0
2019-Dec-14 08:47 175 14 gusting 28 15.0
2019-Dec-14 08:42 160 16 gusting 28 15.0
2019-Dec-14 08:37 174 16 gusting 26 15.0
2019-Dec-14 08:32 157 13 gusting 26 15.0
2019-Dec-14 08:27 174 13 gusting 24 15.0
2019-Dec-14 08:22 217 14 gusting 24 14.4
2019-Dec-14 08:17 196 13 gusting 32 14.4
2019-Dec-14 08:12 210 14 gusting 32 14.4
2019-Dec-14 08:07 139 18 gusting 32 13.9
2019-Dec-14 08:02 180 15 gusting 21 15.0
2019-Dec-14 07:57 163 9 gusting 21 15.6
2019-Dec-14 07:52 169 11 gusting 24 15.6
2019-Dec-14 07:47 138 12 gusting 24 16.7
2019-Dec-14 07:42 184 13 gusting 24 16.7
2019-Dec-14 07:37 151 13 gusting 24 17.2
2019-Dec-14 07:32 222 12 gusting 22 16.7
2019-Dec-14 07:27 169 12 gusting 22 16.7
2019-Dec-14 07:22 183 12 gusting 22 16.1
2019-Dec-14 07:17 187 12 gusting 22 15.6
2019-Dec-14 07:12 179 13 gusting 22 15.6
2019-Dec-14 07:07 191 12 gusting 22 15.6
2019-Dec-14 07:02 203 9 gusting 22 15.0
2019-Dec-14 06:57 177 9 gusting 22 14.4
2019-Dec-14 06:52 206 10 gusting 22 14.4
2019-Dec-14 06:47 219 6 gusting 22 14.4
2019-Dec-14 06:42 198 3 gusting 19 13.3
2019-Dec-14 06:37 214 6 gusting 19 13.3
2019-Dec-14 06:32 167 8 gusting 13 12.8
2019-Dec-14 06:27 132 4 gusting 13 12.8
2019-Dec-14 06:22 173 1 gusting 7 12.8
2019-Dec-14 06:17 110 2 gusting 7 12.2
2019-Dec-14 06:12 096 3 gusting 5 12.2
2019-Dec-14 06:07 134 3 gusting 5 12.2
2019-Dec-14 06:02 020 3 gusting 6 12.2
2019-Dec-14 05:57 030 2 gusting 6 12.2
2019-Dec-14 05:52 034 1 gusting 7 12.2
2019-Dec-14 05:47 025 1 gusting 7 12.2
2019-Dec-14 05:42 063 3 gusting 6 12.2
2019-Dec-14 05:37 001 4 gusting 6 12.2
2019-Dec-14 05:32 047 3 gusting 6 12.2
2019-Dec-14 05:27 356 3 gusting 6 12.2
2019-Dec-14 05:22 084 2 gusting 6 11.7
2019-Dec-14 05:17 061 1 gusting 6 11.7
2019-Dec-14 05:12 085 1 gusting 6 11.7
2019-Dec-14 05:07 082 1 gusting 6 12.2
2019-Dec-14 05:02 041 2 gusting 6 12.2
2019-Dec-14 04:57 125 3 gusting 6 12.2
2019-Dec-14 04:52 114 2 gusting 4 12.2
2019-Dec-14 04:47 082 1 gusting 4 12.2
2019-Dec-14 04:42 132 1 gusting 4 12.2
2019-Dec-14 04:37 113 1 gusting 4 12.2
2019-Dec-14 04:32 020 0 gusting 6 12.2
2019-Dec-14 04:27 096 0 gusting 6 12.2
2019-Dec-14 04:22 096 1 gusting 6 12.2
2019-Dec-14 04:17 047 2 gusting 6 12.2
2019-Dec-14 04:12 049 0 gusting 4 12.2
2019-Dec-14 04:07 079 0 gusting 4 12.2
2019-Dec-14 04:02 100 1 gusting 4 12.2
2019-Dec-14 03:57 102 1 gusting 4 12.2
2019-Dec-14 03:52 053 1 gusting 3 12.2
2019-Dec-14 03:47 049 0 gusting 3 12.2
2019-Dec-14 03:42 062 1 gusting 4 12.2
2019-Dec-14 03:37 055 1 gusting 4 12.2
2019-Dec-14 03:32 12.2
2019-Dec-14 03:27 030 2 gusting 4 12.2
2019-Dec-14 03:22 033 2 gusting 3 12.2
2019-Dec-14 03:17 019 1 gusting 3 12.2
2019-Dec-14 03:12 039 0 gusting 5 12.2
2019-Dec-14 03:07 051 12.2
2019-Dec-14 03:02 051 0 gusting 5 12.2
2019-Dec-14 02:57 358 1 gusting 5 12.2
2019-Dec-14 02:52 268 1 gusting 4 12.2
2019-Dec-14 02:47 199 0 gusting 4 12.2
2019-Dec-14 02:42 086 1 gusting 6 12.2
2019-Dec-14 02:37 058 2 gusting 6 12.2
2019-Dec-14 02:32 094 2 gusting 6 12.2
2019-Dec-14 02:27 043 0 gusting 4 12.2
2019-Dec-14 02:22 063 1 gusting 6 12.2
2019-Dec-14 02:17 063 3 gusting 6 12.2
2019-Dec-14 02:12 069 3 gusting 6 12.2
2019-Dec-14 02:07 051 3 gusting 6 12.2
2019-Dec-14 02:02 047 4 gusting 6 12.2
2019-Dec-14 01:57 038 3 gusting 4 12.2
2019-Dec-14 01:52 356 2 gusting 4 12.2
2019-Dec-14 01:47 028 1 gusting 2 12.2
2019-Dec-14 01:42 042 0 gusting 6 12.8
2019-Dec-14 01:37 051 0 gusting 6 12.8
2019-Dec-14 01:32 203 2 gusting 6 12.2
2019-Dec-14 01:27 283 3 gusting 6 12.2
2019-Dec-14 01:22 188 2 gusting 5 12.2
2019-Dec-14 01:17 036 0 gusting 2 12.2
2019-Dec-14 01:12 095 0 gusting 2 12.2
2019-Dec-14 01:07 095 0 gusting 1 12.2
2019-Dec-14 01:02 099 0 gusting 2 12.2
2019-Dec-14 00:57 090 0 gusting 2 12.2
2019-Dec-14 00:52 098 0 gusting 4 12.2
2019-Dec-14 00:47 106 0 gusting 4 12.2
2019-Dec-14 00:42 354 0 gusting 4 12.2
2019-Dec-14 00:37 039 0 gusting 3 12.2
2019-Dec-14 00:32 172 0 gusting 8 12.2
2019-Dec-14 00:27 172 1 gusting 13 12.2
2019-Dec-14 00:22 289 5 gusting 13 12.8
2019-Dec-14 00:17 249 7 gusting 13 12.8
2019-Dec-14 00:12 218 6 gusting 13 12.8
2019-Dec-14 00:07 232 1 gusting 2 12.8
2019-Dec-14 00:02 246 0 gusting 2 12.2
2019-Dec-13 23:57 239 11.7
2019-Dec-13 23:52 260 1 gusting 5 11.7
2019-Dec-13 23:47 227 3 gusting 9 11.7
2019-Dec-13 23:42 129 4 gusting 9 11.7
2019-Dec-13 23:37 139 3 gusting 5 11.7
2019-Dec-13 23:32 156 3 gusting 6 11.7
2019-Dec-13 23:27 056 3 gusting 7 11.7
2019-Dec-13 23:22 023 4 gusting 8 11.7
2019-Dec-13 23:17 034 5 gusting 8 11.7
2019-Dec-13 23:12 039 5 gusting 8 11.7
2019-Dec-13 23:07 061 4 gusting 6 11.7
2019-Dec-13 23:02 035 4 gusting 6 11.7
2019-Dec-13 22:57 061 2 gusting 6 11.7
2019-Dec-13 22:52 060 2 gusting 6 11.7
2019-Dec-13 22:47 097 2 gusting 6 11.7
2019-Dec-13 22:42 096 2 gusting 6 12.2
2019-Dec-13 22:37 058 2 gusting 6 12.2
2019-Dec-13 22:32 086 3 gusting 7 12.2
2019-Dec-13 22:27 086 4 gusting 7 12.2
2019-Dec-13 22:22 110 4 gusting 7 12.2
2019-Dec-13 22:17 113 4 gusting 7 12.2
2019-Dec-13 22:12 144 2 gusting 5 12.2
2019-Dec-13 22:07 139 0 gusting 3 12.2
2019-Dec-13 22:02 087 0 gusting 3 12.2
2019-Dec-13 21:57 087 0 gusting 3 12.2
2019-Dec-13 21:52 095 0 gusting 2 12.2
2019-Dec-13 21:47 056 0 gusting 3 12.2
2019-Dec-13 21:42 045 1 gusting 4 12.2
2019-Dec-13 21:37 007 2 gusting 6 12.2
2019-Dec-13 21:32 347 2 gusting 8 12.8
2019-Dec-13 21:27 338 4 gusting 8 12.8
2019-Dec-13 21:22 355 4 gusting 11 13.3
2019-Dec-13 21:17 322 4 gusting 14 13.3
2019-Dec-13 21:12 296 6 gusting 14 13.3
2019-Dec-13 21:07 289 5 gusting 5 13.3
2019-Dec-13 21:02 139 1 gusting 5 12.2
2019-Dec-13 20:57 294 1 gusting 6 12.2
2019-Dec-13 20:52 011 2 gusting 6 12.2
2019-Dec-13 20:47 091 2 gusting 3 12.2
2019-Dec-13 20:42 141 2 gusting 3 12.2
2019-Dec-13 20:37 130 0 gusting 4 12.2
2019-Dec-13 20:32 217 0 gusting 4 12.2
2019-Dec-13 20:27 093 1 gusting 4 12.2
2019-Dec-13 20:22 089 1 gusting 5 12.2
2019-Dec-13 20:17 092 1 gusting 5 12.2
2019-Dec-13 20:12 046 2 gusting 5 12.2
2019-Dec-13 20:07 050 1 gusting 3 12.2
2019-Dec-13 20:02 046 1 gusting 3 12.2
2019-Dec-13 19:57 012 1 gusting 2 12.2
2019-Dec-13 19:52 046 0 gusting 2 12.2
2019-Dec-13 19:47 015 0 gusting 2 12.2
2019-Dec-13 19:42 001 0 gusting 2 12.2
2019-Dec-13 19:37 008 12.2
2019-Dec-13 19:32 349 0 gusting 4 12.2
2019-Dec-13 19:27 349 0 gusting 5 12.8
2019-Dec-13 19:22 340 1 gusting 6 12.8
2019-Dec-13 19:17 323 2 gusting 6 12.8
2019-Dec-13 19:12 324 1 gusting 6 12.8
2019-Dec-13 19:07 331 1 gusting 7 12.8
2019-Dec-13 19:02 270 1 gusting 8 12.8
2019-Dec-13 18:57 293 1 gusting 8 12.8
2019-Dec-13 18:52 214 2 gusting 7 12.8
2019-Dec-13 18:47 272 3 gusting 6 12.8
2019-Dec-13 18:42 030 2 gusting 6 12.2
2019-Dec-13 18:37 349 3 gusting 6 12.2
2019-Dec-13 18:32 004 1 gusting 5 12.2
2019-Dec-13 18:27 341 1 gusting 4 12.8
2019-Dec-13 18:22 266 1 gusting 4 12.8
2019-Dec-13 18:17 264 1 gusting 4 12.8
2019-Dec-13 18:12 043 2 gusting 4 12.8
2019-Dec-13 18:07 046 2 gusting 4 12.8
2019-Dec-13 18:02 045 2 gusting 4 12.8
2019-Dec-13 17:57 044 2 gusting 4 12.8
2019-Dec-13 17:52 042 3 gusting 4 12.8
2019-Dec-13 17:47 039 3 gusting 4 12.8
2019-Dec-13 17:42 037 2 gusting 4 13.3
2019-Dec-13 17:37 004 0 gusting 8 13.3
2019-Dec-13 17:32 016 0 gusting 8 13.3
2019-Dec-13 17:27 263 2 gusting 10 13.3
2019-Dec-13 17:22 327 4 gusting 11 13.9
2019-Dec-13 17:17 323 6 gusting 15 13.9
2019-Dec-13 17:12 294 6 gusting 15 13.9
2019-Dec-13 17:07 288 7 gusting 13 13.3
2019-Dec-13 17:02 298 5 gusting 13 13.3
2019-Dec-13 16:57 312 1 gusting 5 13.3
2019-Dec-13 16:52 094 2 gusting 5 13.3
2019-Dec-13 16:42 122 12.8
2019-Dec-13 16:37 332 0 gusting 4 12.8
2019-Dec-13 16:32 332 0 gusting 4 12.8
2019-Dec-13 16:27 349 12.8
2019-Dec-13 16:22 339 12.8
2019-Dec-13 16:17 339 0 gusting 3 12.8
2019-Dec-13 16:12 321 1 gusting 5 12.8
2019-Dec-13 16:07 335 1 gusting 5 12.8
2019-Dec-13 16:02 325 1 gusting 8 13.3
2019-Dec-13 15:57 328 2 gusting 8 13.3
2019-Dec-13 15:52 261 3 gusting 8 13.3
2019-Dec-13 15:47 258 2 gusting 7 13.3
2019-Dec-13 15:42 300 1 gusting 6 13.3
2019-Dec-13 15:37 330 1 gusting 7 13.3
2019-Dec-13 15:32 330 2 gusting 7 13.3
2019-Dec-13 15:27 323 3 gusting 7 13.3
2019-Dec-13 15:22 315 3 gusting 6 13.3
2019-Dec-13 15:17 277 2 gusting 6 13.3
2019-Dec-13 15:12 341 3 gusting 6 13.3
2019-Dec-13 15:07 342 4 gusting 15 13.3
2019-Dec-13 15:02 047 5 gusting 15 13.3
2019-Dec-13 14:57 341 6 gusting 15 13.3
2019-Dec-13 14:52 330 6 gusting 15 13.9
2019-Dec-13 14:47 290 4 gusting 8 13.9
2019-Dec-13 14:42 278 0 gusting 3 14.4
2019-Dec-13 14:37 307 13.9
2019-Dec-13 14:32 307 13.9
2019-Dec-13 14:27 307 14.4
2019-Dec-13 14:22 307 0 gusting 2 14.4
2019-Dec-13 14:17 307 1 gusting 3 14.4
2019-Dec-13 14:12 307 1 gusting 5 14.4
2019-Dec-13 14:07 325 1 gusting 5 14.4
2019-Dec-13 14:02 324 1 gusting 5 14.4
2019-Dec-13 13:57 317 0 gusting 0 13.9
2019-Dec-13 13:52 323 13.9
2019-Dec-13 13:47 343 13.9
2019-Dec-13 13:42 330 13.9
2019-Dec-13 13:37 330 13.9
2019-Dec-13 13:32 330 1 gusting 13 14.4
2019-Dec-13 13:27 330 6 gusting 13 15.0
2019-Dec-13 13:22 240 7 gusting 15 16.1
2019-Dec-13 13:17 257 7 gusting 15 16.7
2019-Dec-13 13:12 300 7 gusting 15 16.7
2019-Dec-13 13:07 274 6 gusting 13 16.7
2019-Dec-13 13:02 288 6 gusting 14 16.1
2019-Dec-13 12:57 239 7 gusting 14 15.6
2019-Dec-13 12:52 242 6 gusting 14 15.0
2019-Dec-13 12:47 290 6 gusting 12 15.0
2019-Dec-13 12:42 300 6 gusting 11 15.0
2019-Dec-13 12:37 292 5 gusting 10 15.0
2019-Dec-13 12:32 258 4 gusting 9 15.0
2019-Dec-13 12:27 254 5 gusting 9 15.0
2019-Dec-13 12:22 285 5 gusting 12 15.0
2019-Dec-13 12:17 257 6 gusting 12 14.4
2019-Dec-13 12:12 257 6 gusting 12 14.4
2019-Dec-13 12:07 259 5 gusting 6 14.4
2019-Dec-13 12:02 269 2 gusting 4 14.4
2019-Dec-13 11:57 246 0 gusting 3 14.4
2019-Dec-13 11:52 288 0 gusting 3 14.4
2019-Dec-13 11:47 308 1 gusting 6 14.4
2019-Dec-13 11:42 274 2 gusting 6 14.4
2019-Dec-13 11:37 234 2 gusting 13 13.9
2019-Dec-13 11:32 278 5 gusting 19 13.9
2019-Dec-13 11:27 305 7 gusting 26 13.9
2019-Dec-13 11:22 247 12 gusting 26 14.4
2019-Dec-13 11:17 259 12 gusting 20 15.6
2019-Dec-13 11:12 285 8 gusting 15 17.2
2019-Dec-13 11:07 271 6 gusting 14 17.2
2019-Dec-13 11:02 273 6 gusting 16 17.2
2019-Dec-13 10:57 264 7 gusting 16 17.2
2019-Dec-13 10:52 307 7 gusting 16 17.2
2019-Dec-13 10:47 254 7 gusting 15 17.2
2019-Dec-13 10:42 281 7 gusting 15 17.2
2019-Dec-13 10:37 252 8 gusting 15 17.2
2019-Dec-13 10:32 250 9 gusting 14 17.2
2019-Dec-13 10:27 283 8 gusting 13 17.2
2019-Dec-13 10:22 274 6 gusting 16 17.2
2019-Dec-13 10:17 290 7 gusting 16 17.2
2019-Dec-13 10:12 307 8 gusting 16 17.2
2019-Dec-13 10:07 244 6 gusting 10 17.2
2019-Dec-13 10:02 285 3 gusting 5 17.8
2019-Dec-13 09:57 266 2 gusting 5 17.8
2019-Dec-13 09:52 281 2 gusting 5 17.2
2019-Dec-13 09:47 238 1 gusting 3 17.2
2019-Dec-13 09:42 281 1 gusting 3 17.2
2019-Dec-13 09:37 259 1 gusting 3 17.2
2019-Dec-13 09:32 212 0 gusting 3 17.8
2019-Dec-13 09:27 324 0 gusting 2 17.2
2019-Dec-13 09:22 274 17.2
2019-Dec-13 09:17 290 17.2
2019-Dec-13 09:12 266 17.2
2019-Dec-13 09:07 085 16.7
2019-Dec-13 09:02 085 16.7
2019-Dec-13 08:57 085 16.1
2019-Dec-13 08:52 106 15.6
2019-Dec-13 08:47 046 15.6
2019-Dec-13 08:42 046 15.6
2019-Dec-13 08:37 046 15.6
2019-Dec-13 08:32 046 15.6
2019-Dec-13 08:27 046 15.6
2019-Dec-13 08:22 044 15.6
2019-Dec-13 08:17 115 0 gusting 3 15.0
2019-Dec-13 08:12 115 1 gusting 3 15.0
2019-Dec-13 08:07 129 0 gusting 2 15.0
2019-Dec-13 08:02 129 14.4
2019-Dec-13 07:57 121 0 gusting 3 14.4
2019-Dec-13 07:52 124 1 gusting 4 13.9
2019-Dec-13 07:47 132 0 gusting 4 13.9
2019-Dec-13 07:42 110 1 gusting 4 13.9
2019-Dec-13 07:37 113 1 gusting 4 13.3
2019-Dec-13 07:32 091 1 gusting 4 12.8
2019-Dec-13 07:27 098 0 gusting 4 12.8
2019-Dec-13 07:22 088 0 gusting 3 12.8
2019-Dec-13 07:17 082 0 gusting 3 12.2
2019-Dec-13 07:12 046 0 gusting 2 12.2
2019-Dec-13 07:07 046 12.2
2019-Dec-13 07:02 046 0 gusting 2 12.2
2019-Dec-13 06:57 046 1 gusting 2 11.7
2019-Dec-13 06:52 053 1 gusting 3 11.7
2019-Dec-13 06:47 044 1 gusting 3 11.7
2019-Dec-13 06:42 045 1 gusting 3 11.7
2019-Dec-13 06:37 041 1 gusting 3 11.7
2019-Dec-13 06:32 088 2 gusting 3 11.7
2019-Dec-13 06:27 114 1 gusting 3 11.1
2019-Dec-13 06:22 091 0 gusting 4 11.1
2019-Dec-13 06:17 059 0 gusting 4 11.1
2019-Dec-13 06:12 091 1 gusting 3 11.1
2019-Dec-13 06:07 047 2 gusting 3 11.1
2019-Dec-13 06:02 046 0 gusting 2 11.1
2019-Dec-13 05:57 089 11.1
2019-Dec-13 05:52 088 0 gusting 2 11.1
2019-Dec-13 05:47 089 0 gusting 2 11.1
2019-Dec-13 05:42 097 0 gusting 2 11.1
2019-Dec-13 05:37 053 0 gusting 2 11.1
2019-Dec-13 05:32 088 0 gusting 2 11.1
2019-Dec-13 05:27 086 1 gusting 2 11.1
2019-Dec-13 05:22 103 0 gusting 3 10.6
2019-Dec-13 05:17 039 10.6
2019-Dec-13 05:12 304 0 gusting 3 10.6
2019-Dec-13 05:07 082 1 gusting 3 10.6
2019-Dec-13 05:02 087 1 gusting 4 10.6
2019-Dec-13 04:57 091 1 gusting 4 10.6
2019-Dec-13 04:52 097 1 gusting 4 10.6
2019-Dec-13 04:47 086 1 gusting 4 10.6
2019-Dec-13 04:42 047 1 gusting 5 10.6
2019-Dec-13 04:37 080 1 gusting 5 10.6
2019-Dec-13 04:32 041 2 gusting 5 10.6
2019-Dec-13 04:27 043 2 gusting 5 10.6
2019-Dec-13 04:22 049 2 gusting 3 10.6
2019-Dec-13 04:17 044 1 gusting 3 10.6
2019-Dec-13 04:12 045 0 gusting 3 10.6
2019-Dec-13 04:07 058 0 gusting 3 10.6
2019-Dec-13 04:02 084 1 gusting 3 10.6
2019-Dec-13 03:57 105 1 gusting 3 10.6
2019-Dec-13 03:52 101 0 gusting 2 10.6
2019-Dec-13 03:47 100 0 gusting 2 10.6
2019-Dec-13 03:42 321 0 gusting 6 10.6
2019-Dec-13 03:37 056 1 gusting 6 10.6
2019-Dec-13 03:32 095 2 gusting 6 10.6
2019-Dec-13 03:27 103 2 gusting 6 10.6
2019-Dec-13 03:22 097 2 gusting 4 11.1
2019-Dec-13 03:17 091 2 gusting 4 11.1
2019-Dec-13 03:12 105 0 gusting 5 11.1
2019-Dec-13 03:07 034 2 gusting 5 10.6
2019-Dec-13 03:02 034 3 gusting 5 10.6
2019-Dec-13 02:57 044 2 gusting 5 10.6
2019-Dec-13 02:52 043 1 gusting 3 10.6
2019-Dec-13 02:47 090 1 gusting 3 10.6
2019-Dec-13 02:42 056 2 gusting 5 10.6
2019-Dec-13 02:37 044 2 gusting 5 10.6
2019-Dec-13 02:32 032 2 gusting 5 10.0
2019-Dec-13 02:27 034 1 gusting 5 10.0
2019-Dec-13 02:22 357 1 gusting 5 10.0
2019-Dec-13 02:17 074 2 gusting 6 10.0
2019-Dec-13 02:12 055 3 gusting 6 10.0
2019-Dec-13 02:07 129 2 gusting 5 10.0
2019-Dec-13 02:02 094 2 gusting 5 10.0
2019-Dec-13 01:57 105 1 gusting 4 10.0
2019-Dec-13 01:52 088 1 gusting 4 10.0
2019-Dec-13 01:47 089 1 gusting 3 10.0
2019-Dec-13 01:42 093 1 gusting 4 10.0
2019-Dec-13 01:37 041 2 gusting 4 10.0
2019-Dec-13 01:32 088 2 gusting 4 10.0
2019-Dec-13 01:27 078 1 gusting 3 10.0
2019-Dec-13 01:22 058 0 gusting 4 9.4
2019-Dec-13 01:17 096 0 gusting 4 9.4
2019-Dec-13 01:12 062 1 gusting 5 9.4
2019-Dec-13 01:07 046 1 gusting 5 9.4
2019-Dec-13 01:02 065 1 gusting 5 9.4
2019-Dec-13 00:57 053 0 gusting 2 10.0
2019-Dec-13 00:52 067 0 gusting 4 10.0
2019-Dec-13 00:47 021 1 gusting 4 10.0
2019-Dec-13 00:42 048 2 gusting 4 10.0
2019-Dec-13 00:37 042 2 gusting 4 10.0
2019-Dec-13 00:32 060 2 gusting 7 10.0
2019-Dec-13 00:27 049 2 gusting 7 10.0
2019-Dec-13 00:22 089 2 gusting 7 10.0
2019-Dec-13 00:17 089 2 gusting 4 10.6
2019-Dec-13 00:07 115 1 gusting 4 10.6
2019-Dec-13 00:02 098 1 gusting 4 10.6
2019-Dec-12 23:57 082 1 gusting 5 10.6
2019-Dec-12 23:52 082 2 gusting 5 10.6
2019-Dec-12 23:47 092 1 gusting 4 10.6
2019-Dec-12 23:42 105 1 gusting 3 10.0
2019-Dec-12 23:37 056 1 gusting 3 10.0
2019-Dec-12 23:32 043 1 gusting 3 10.0
2019-Dec-12 23:27 093 1 gusting 4 10.0
2019-Dec-12 23:22 086 1 gusting 4 10.0
2019-Dec-12 23:17 106 1 gusting 4 10.0
2019-Dec-12 23:12 089 1 gusting 4 10.0
2019-Dec-12 23:07 090 1 gusting 4 10.0
2019-Dec-12 23:02 086 2 gusting 4 9.4
2019-Dec-12 22:57 091 1 gusting 3 9.4
2019-Dec-12 22:52 101 0 gusting 3 9.4
2019-Dec-12 22:47 098 0 gusting 3 9.4
2019-Dec-12 22:42 044 0 gusting 4 9.4
2019-Dec-12 22:37 050 1 gusting 5 9.4
2019-Dec-12 22:32 053 3 gusting 5 9.4
2019-Dec-12 22:27 046 3 gusting 5 9.4
2019-Dec-12 22:22 049 3 gusting 5 9.4
2019-Dec-12 22:17 041 3 gusting 5 9.4
2019-Dec-12 22:12 039 2 gusting 5 9.4
2019-Dec-12 22:07 056 1 gusting 5 9.4
2019-Dec-12 22:02 095 1 gusting 5 9.4
2019-Dec-12 21:57 091 1 gusting 5 10.0
2019-Dec-12 21:52 083 0 gusting 5 10.0
2019-Dec-12 21:47 077 1 gusting 5 10.0
2019-Dec-12 21:42 068 2 gusting 5 10.0
2019-Dec-12 21:37 093 2 gusting 5 10.0
2019-Dec-12 21:32 054 3 gusting 5 10.0
2019-Dec-12 21:27 089 3 gusting 5 10.0
2019-Dec-12 21:22 088 2 gusting 5 10.0
2019-Dec-12 21:17 070 1 gusting 4 10.0
2019-Dec-12 21:12 088 1 gusting 4 9.4
2019-Dec-12 21:07 085 2 gusting 4 9.4
2019-Dec-12 21:02 047 2 gusting 4 9.4
2019-Dec-12 20:57 048 1 gusting 4 9.4
2019-Dec-12 20:52 038 2 gusting 4 9.4
2019-Dec-12 20:47 046 1 gusting 4 9.4
2019-Dec-12 20:42 049 1 gusting 4 9.4
2019-Dec-12 20:37 048 2 gusting 4 9.4
2019-Dec-12 20:32 041 2 gusting 4 10.0
2019-Dec-12 20:27 037 2 gusting 4 10.0
2019-Dec-12 20:22 022 1 gusting 4 10.0
2019-Dec-12 20:17 329 2 gusting 4 10.0
2019-Dec-12 20:12 038 2 gusting 4 10.6
2019-Dec-12 20:07 026 1 gusting 4 10.6
2019-Dec-12 20:02 097 2 gusting 4 10.6
2019-Dec-12 19:57 084 1 gusting 4 10.6
2019-Dec-12 19:52 077 0 gusting 5 10.6
2019-Dec-12 19:47 096 1 gusting 6 10.6
2019-Dec-12 19:42 041 2 gusting 6 10.6
2019-Dec-12 19:37 053 3 gusting 6 10.6
2019-Dec-12 19:32 037 2 gusting 5 10.6
2019-Dec-12 19:27 032 1 gusting 5 10.6
2019-Dec-12 19:22 089 0 gusting 3 11.1
2019-Dec-12 19:17 049 0 gusting 3 11.1
2019-Dec-12 19:12 096 11.1
2019-Dec-12 19:07 100 11.1
2019-Dec-12 19:02 099 0 gusting 3 11.7
2019-Dec-12 18:57 044 1 gusting 3 11.7
2019-Dec-12 18:52 104 0 gusting 3 11.7
2019-Dec-12 18:47 099 11.7
2019-Dec-12 18:42 095 11.7
2019-Dec-12 18:37 095 11.7
2019-Dec-12 18:32 082 11.7
2019-Dec-12 18:27 047 11.7
2019-Dec-12 18:22 020 0 gusting 3 11.7
2019-Dec-12 18:17 049 1 gusting 3 11.7
2019-Dec-12 18:12 044 1 gusting 3 11.7
2019-Dec-12 18:07 037 0 gusting 3 11.7
2019-Dec-12 18:02 046 0 gusting 3 11.7
2019-Dec-12 17:57 075 0 gusting 3 11.7
2019-Dec-12 17:52 037 11.7
2019-Dec-12 17:47 088 12.2
2019-Dec-12 17:42 092 11.7
2019-Dec-12 17:37 079 12.2
2019-Dec-12 17:32 031 12.2
2019-Dec-12 17:27 059 12.2
2019-Dec-12 17:22 059 0 gusting 3 12.2
2019-Dec-12 17:17 048 1 gusting 3 12.2
2019-Dec-12 17:12 042 1 gusting 3 12.2
2019-Dec-12 17:07 045 1 gusting 4 12.2
2019-Dec-12 17:02 045 1 gusting 4 12.2
2019-Dec-12 16:57 039 0 12.8
2019-Dec-12 16:52 056 12.8
2019-Dec-12 16:47 049 12.8
2019-Dec-12 16:42 050 12.8
2019-Dec-12 16:37 050 12.8
2019-Dec-12 16:32 030 12.8
2019-Dec-12 16:27 324 13.3
2019-Dec-12 16:22 324 13.3
2019-Dec-12 16:17 324 13.3
2019-Dec-12 16:12 324 13.3
2019-Dec-12 16:07 324 13.3
2019-Dec-12 16:02 324 13.9
2019-Dec-12 15:57 324 13.9
2019-Dec-12 15:52 324 13.9
2019-Dec-12 15:47 324 14.4
2019-Dec-12 15:42 324 14.4
2019-Dec-12 15:37 324 0 gusting 2 14.4
2019-Dec-12 15:32 322 0 gusting 3 14.4
2019-Dec-12 15:27 322 0 gusting 3 14.4
2019-Dec-12 15:22 322 1 gusting 3 14.4
2019-Dec-12 15:17 326 1 gusting 3 15.0
2019-Dec-12 15:12 323 0 gusting 3 15.0
2019-Dec-12 15:07 323 0 gusting 3 15.0
2019-Dec-12 15:02 319 1 gusting 3 15.0
2019-Dec-12 14:57 325 0 gusting 5 15.6
2019-Dec-12 14:52 314 1 gusting 5 15.6
2019-Dec-12 14:47 328 2 gusting 6 15.6
2019-Dec-12 14:42 323 2 gusting 7 15.6
2019-Dec-12 14:37 329 3 gusting 7 15.6
2019-Dec-12 14:32 316 4 gusting 7 16.1
2019-Dec-12 14:27 311 4 gusting 6 16.1
2019-Dec-12 14:22 317 3 gusting 9 16.1
2019-Dec-12 14:17 267 4 gusting 10 16.7
2019-Dec-12 14:12 320 5 gusting 10 16.7
2019-Dec-12 14:07 342 5 gusting 11 16.7
2019-Dec-12 14:02 337 6 gusting 16 16.7
2019-Dec-12 13:57 319 7 gusting 16 16.7
2019-Dec-12 13:52 338 7 gusting 16 17.2
2019-Dec-12 13:47 354 5 gusting 8 17.2
2019-Dec-12 13:42 285 4 gusting 10 17.8
2019-Dec-12 13:37 230 6 gusting 11 17.8
2019-Dec-12 13:32 245 6 gusting 11 17.8
2019-Dec-12 13:27 233 6 gusting 11 17.8
2019-Dec-12 13:22 247 6 gusting 10 17.8
2019-Dec-12 13:17 243 6 gusting 10 17.8
2019-Dec-12 13:12 243 6 gusting 10 17.8
2019-Dec-12 13:07 229 6 gusting 8 17.8
2019-Dec-12 13:02 240 5 gusting 8 17.8
2019-Dec-12 12:57 213 5 gusting 7 17.8
2019-Dec-12 12:52 231 5 gusting 7 17.8
2019-Dec-12 12:47 231 4 gusting 9 17.8
2019-Dec-12 12:42 204 4 gusting 9 17.8
2019-Dec-12 12:37 155 4 gusting 9 17.8
2019-Dec-12 12:32 224 4 gusting 8 17.8
2019-Dec-12 12:27 220 4 gusting 8 17.8
2019-Dec-12 12:22 229 3 gusting 7 17.8
2019-Dec-12 12:17 205 3 gusting 5 17.8
2019-Dec-12 12:12 211 3 gusting 5 17.8
2019-Dec-12 12:07 219 3 gusting 6 17.8
2019-Dec-12 12:02 225 3 gusting 6 17.8